This is the latest recevied weather packets stored in our database for station/object WB9TLH-11. If no packets are shown the sender has not sent any weather packets the latest 10 day(s).
| Time | Temp. | Humidity | Pressure | Rain* | Wind** | Luminosity | Snow |
|---|---|---|---|---|---|---|---|
| 1777852856 | 16.11° C | 43% | 1013.2 hPa | 0 mm | - | - | - |
| 1777852556 | 16.67° C | 43% | 1013.2 hPa | 0 mm | - | - | - |
| 1777852256 | 16.67° C | 42% | 1013.3 hPa | 0 mm | - | - | - |
| 1777851956 | 16.67° C | 42% | 1013.4 hPa | 0 mm | - | - | - |
| 1777851656 | 16.67° C | 42% | 1013.6 hPa | 0 mm | - | - | - |
| 1777851356 | 16.67° C | 41% | 1013.6 hPa | 0 mm | - | - | - |
| 1777851056 | 16.67° C | 44% | 1013.5 hPa | 0 mm | - | - | - |
| 1777850756 | 16.67° C | 42% | 1013.5 hPa | 0 mm | - | - | - |
| 1777850456 | 16.67° C | 41% | 1013.3 hPa | 0 mm | - | - | - |
| 1777850156 | 16.67° C | 40% | 1012.8 hPa | 0 mm | - | - | - |
| 1777849856 | 16.67° C | 41% | 1012.8 hPa | 0 mm | - | - | - |
| 1777849556 | 16.67° C | 40% | 1012.9 hPa | 0 mm | - | - | - |
| 1777849256 | 16.67° C | 41% | 1013 hPa | 0 mm | - | - | - |
| 1777848956 | 16.67° C | 40% | 1013.1 hPa | 0 mm | - | - | - |
| 1777848656 | 16.67° C | 40% | 1013.3 hPa | 0 mm | - | - | - |
| 1777848356 | 16.67° C | 40% | 1013.2 hPa | 0 mm | - | - | - |
| 1777848056 | 16.67° C | 40% | 1013.3 hPa | 0 mm | - | - | - |
| 1777847756 | 16.67° C | 41% | 1013.2 hPa | 0 mm | - | - | - |
| 1777847456 | 16.67° C | 41% | 1013.3 hPa | 0 mm | - | - | - |
| 1777847156 | 16.67° C | 40% | 1013.3 hPa | 0 mm | - | - | - |
| 1777846856 | 16.67° C | 42% | 1013.4 hPa | 0 mm | - | - | - |
| 1777846556 | 16.67° C | 41% | 1013.4 hPa | 0 mm | - | - | - |
| 1777846256 | 16.67° C | 41% | 1013.2 hPa | 0 mm | - | - | - |
| 1777845956 | 16.67° C | 41% | 1013.4 hPa | 0 mm | - | - | - |
| 1777845656 | 16.67° C | 40% | 1013.4 hPa | 0 mm | - | - | - |
* Rain latest hour (hover to see other rain measurements)
** Current wind speed in m/s (hover to see current wind gust speed)